Regional Weather Roundup
Issued by NWS

Home | Current Version | Previous Version | Text Only | Print | Product List | Glossary On
Versions: 1 2 3 4 5 6 7 8 9 10 11 12 13 14 15 16 17 18 19 20 21 22 23 24 25 26 27 28 29 30 31 32 33 34 35 36 37 38 39 40 41 42 43 44 45 46 47 48 49 50
000
ASUS45 KPSR 061810
RWRAZ

ARIZONA REGIONAL HOURLY WEATHER ROUNDUP
NATIONAL WEATHER SERVICE PHOENIX AZ
1100 AM MST WED MAY 06 2015

NOTE: FAIR INDICATES FEW OR NO CLOUDS BELOW 12,000 FEET WITH NO
SIGNIFICANT WEATHER AND/OR OBSTRUCTIONS TO VISIBILITY.

AZZ001>003-036-061900-
NORTHWEST ARIZONA

CITY           SKY/WX    TMP DP  RH WIND       PRES   REMARKS
BULLHEAD CITY  MOSUNNY   81  41  24 S17       29.73F
KINGMAN        MOSUNNY   74  35  24 S13G24    29.84S
6HR MIN TEMP:  47; 6HR MAX TEMP:  74;

$$

AZZ004>008-015-016-018-061900-
NORTH CENTRAL ARIZONA

CITY           SKY/WX    TMP DP  RH WIND       PRES   REMARKS
GRAND CANYON   PTSUNNY   59  32  36 SW20G29   29.97S
6HR MIN TEMP:  37; 6HR MAX TEMP:  59;

WILLIAMS       MOSUNNY   57  32  38 S14G21    30.04S
PRESCOTT       MOSUNNY   63  18  17 SW10      29.93S
6HR MIN TEMP:  45; 6HR MAX TEMP:  64;

FLAGSTAFF      MOSUNNY   53  28  38 SW18G28   29.99S
6HR MIN TEMP:  33; 6HR MAX TEMP:  54;

PAYSON         SUNNY     64  41  42 S13       29.96F
PAGE           MOSUNNY   68  44  42 VRB6      29.84F
6HR MIN TEMP:  54; 6HR MAX TEMP:  68;

$$

AZZ009>014-017-061900-
NORTHEAST ARIZONA

CITY           SKY/WX    TMP DP  RH WIND       PRES   REMARKS
WINSLOW        MOSUNNY   69  36  29 MISG      29.90F
6HR MIN TEMP:  48; 6HR MAX TEMP:  70;

SAINT JOHNS    PTSUNNY   63  41  44 NW7       29.94F
6HR MIN TEMP:  49; 6HR MAX TEMP:  64;

WINDOW ROCK    MOSUNNY   60  40  47 SW16      29.98F
6HR MIN TEMP:  46; 6HR MAX TEMP:  60;

SHOW LOW       MOSUNNY   59  36  41 SW15      29.99F
$$

AZZ023-061900-
GREATER PHOENIX AREA

CITY           SKY/WX    TMP DP  RH WIND       PRES   REMARKS
PHOENIX        MOSUNNY   83  38  20 S12       29.78F
6HR MIN TEMP:  69; 6HR MAX TEMP:  83;

GLENDALE       MOSUNNY   79  39  24 CALM      29.80F
LUKE AFB       SUNNY     80  41  24 VRB5      29.78F
6HR MIN TEMP:  61; 6HR MAX TEMP:  80;

DEER VALLEY    MOSUNNY   76  40  27 SE7       29.80F
6HR MIN TEMP:  63; 6HR MAX TEMP:  76;

SCOTTSDALE     MOSUNNY   79  39  23 S6        29.81F
6HR MIN TEMP:  65; 6HR MAX TEMP:  79;

MESA-FALCON    PTSUNNY   79  41  25 S6        29.80F
MESA-GATEWAY   MOSUNNY   77  41  27 SE7       29.83F
CHANDLER       PTSUNNY   79  39  24 S8        29.80F
$$

AZZ027-028-061900-
SOUTHWEST MARICOPA COUNTY AND PINAL COUNTY

CITY           SKY/WX    TMP DP  RH WIND       PRES   REMARKS
CASA GRANDE    MOSUNNY   79  39  24 E10       29.80F
6HR MIN TEMP:  59; 6HR MAX TEMP:  79;

GILA BEND      SUNNY     81  40  22 VRB3      29.77F
6HR MIN TEMP:  63; 6HR MAX TEMP:  83;

$$

AZZ503-504-507>509-061900-
SOUTHEAST ARIZONA

CITY           SKY/WX    TMP DP  RH WIND       PRES   REMARKS
TUCSON         SUNNY     81  24  12 S10G21    29.87F
6HR MIN TEMP:  60; 6HR MAX TEMP:  82;

DAVIS-MONTHAN  MOSUNNY   78  27  15 S8        29.85F
6HR MIN TEMP:  58; 6HR MAX TEMP:  78;

RYAN FIELD       N/A     81  30  16 SW6       29.85F
NOGALES        SUNNY     76  21  12 S15G28    29.92F
6HR MIN TEMP:  49; 6HR MAX TEMP:  76;

SIERRA VISTA   SUNNY     73  13  10 SW24G30   29.95F
6HR MIN TEMP:  51; 6HR MAX TEMP:  73;

DOUGLAS        SUNNY     74  27  17 S12G18    29.93F
6HR MIN TEMP:  45; 6HR MAX TEMP:  75;

SAFFORD        MOSUNNY   78  43  28 E10       29.86F
6HR MIN TEMP:  52; 6HR MAX TEMP:  78;

$$

AZZ020-021-025-026-031-061900-
SOUTHWEST ARIZONA

CITY           SKY/WX    TMP DP  RH WIND       PRES   REMARKS
YUMA           MOSUNNY   80  52  37 S13G20    29.77F
6HR MIN TEMP:  67; 6HR MAX TEMP:  80;

$$

CAZ031-033-041-043-047-048-061-061900-
SOUTHERN CALIFORNIA

CITY           SKY/WX    TMP DP  RH WIND       PRES   REMARKS
DOWNTOWN L.A.  CLOUDY    64  48  56 VRB3      29.90S
6HR MIN TEMP:  59; 6HR MAX TEMP:  64;

L.A. AIRPORT   CLOUDY    61  49  64 W9        29.91S
6HR MIN TEMP:  59; 6HR MAX TEMP:  62;

SAN DIEGO      CLOUDY    62  50  64 SW7       29.93S
6HR MIN TEMP:  61; 6HR MAX TEMP:  63;

BURBANK        CLOUDY    61  46  59 S7        29.90S
6HR MIN TEMP:  57; 6HR MAX TEMP:  61;

ONTARIO        CLOUDY    60  45  57 CALM      29.90F
6HR MIN TEMP:  56; 6HR MAX TEMP:  61;

RIVERSIDE      CLOUDY    61  46  57 CALM      29.90S
6HR MIN TEMP:  56; 6HR MAX TEMP:  62;

PALM SPRINGS   SUNNY     77  39  25 NW15G26   29.78S
6HR MIN TEMP:  64; 6HR MAX TEMP:  78;

EL CENTRO NAS  MOSUNNY   78  37  22 SW12      29.78F
6HR MIN TEMP:  64; 6HR MAX TEMP:  78;

IMPERIAL       SUNNY     78  39  24 W8        29.76F
6HR MIN TEMP:  63; 6HR MAX TEMP:  78;

BLYTHE         SUNNY     79  47  32 S18       29.77S
6HR MIN TEMP:  66; 6HR MAX TEMP:  79;

NEEDLES        MOSUNNY   83  38  20 SW22G29   29.74F
6HR MIN TEMP:  69; 6HR MAX TEMP:  83;

$$

NVZ020-UTZ003-061900-
SOUTHERN NEVADA-UTAH

CITY           SKY/WX    TMP DP  RH WIND       PRES   REMARKS
LAS VEGAS      PTSUNNY   75  36  24 S8        29.71F
6HR MIN TEMP:  65; 6HR MAX TEMP:  77;

SALT LAKE CITY PTSUNNY   64  45  49 SW9       29.76F
6HR MIN TEMP:  54; 6HR MAX TEMP:  64;

$$

NMZ009-TXZ055-061900-
NEW MEXICO-WEST TEXAS

CITY           SKY/WX    TMP DP  RH WIND       PRES   REMARKS
ALBUQUERQUE    PTSUNNY   65  43  44 SW13      29.94F
6HR MIN TEMP:  52; 6HR MAX TEMP:  65;

EL PASO        MOSUNNY   77  33  20 SW14      29.93F
6HR MIN TEMP:  58; 6HR MAX TEMP:  77;

$$


........................KEY........................
SKY/WX - SKY CONDITION/WEATHER
TMP    - TEMPERATURE IN FAHRENHEIT
DP     - DEW POINT IN FAHRENHEIT
RH     - RELATIVE HUMIDITY IN PERCENT
WIND   - DIRECTION AND SPEED IN MILES PER HOUR (MPH)
VRB    - VARIABLE WIND DIRECTION
PRES   - MEAN SEA LEVEL PRESSURE IN INCHES OF MERCURY
         F - FALLING PRESSURE   R - RISING PRESSURE
         S - STEADY PRESSURE
VSB    - VISIBILITY IN MILES
HX     - HEAT INDEX IN FAHRENHEIT
WCI    - WIND CHILL INDEX IN FAHRENHEIT
TC     - TEMPERATURE IN CELSIUS WHICH IS ALSO KNOWN AS
         TEMPERATURE IN CENTIGRADE
AFB    - AIR FORCE BASE
         LUKE AFB IS LUKE AIR FORCE BASE
         DAVIS-MONTHAN IS DAVIS-MONTHAN AIR FORCE BASE
NAS    - NAVAL AIR STATION
         EL CENTRO NAS IS EL CENTRO NAVAL AIR STATION
N/A    - NOT AVAILABLE




USA.gov is the U.S. government's official web portal to all federal, state and local government web resources and services.